owner,sensor,date,latitude,longitude,air_temperature,qcFlag 
DISL,ioos:station:DISL:DISL:1,2017-02-01T00:00:00Z,30.2513,-88.0778,17.47,1111122 
DISL,ioos:station:DISL:DISL:1,2017-02-01T00:30:00Z,30.2513,-88.0778,17.37,1111122 
DISL,ioos:station:DISL:DISL:1,2017-02-01T01:00:00Z,30.2513,-88.0778,17.27,1111122 
DISL,ioos:station:DISL:DISL:1,2017-02-01T01:30:00Z,30.2513,-88.0778,17.32,1111122 
DISL,ioos:station:DISL:DISL:1,2017-02-01T02:00:00Z,30.2513,-88.0778,17.32,1111122 
DISL,ioos:station:DISL:DISL:1,2017-02-01T02:30:00Z,30.2513,-88.0778,17.46,1111122 
DISL,ioos:station:DISL:DISL:1,2017-02-01T03:00:00Z,30.2513,-88.0778,17.39,1111122 
DISL,ioos:station:DISL:DISL:1,2017-02-01T03:30:00Z,30.2513,-88.0778,17.49,1111122 
DISL,ioos:station:DISL:DISL:1,2017-02-01T04:00:00Z,30.2513,-88.0778,17.42,1111122 
DISL,ioos:station:DISL:DISL:1,2017-02-01T04:30:00Z,30.2513,-88.0778,17.39,1111122 
DISL,ioos:station:DISL:DISL:1,2017-02-01T05:00:00Z,30.2513,-88.0778,17.59,1111122 
DISL,ioos:station:DISL:DISL:1,2017-02-01T05:30:00Z,30.2513,-88.0778,17.59,1111122 
DISL,ioos:station:DISL:DISL:1,2017-02-01T06:30:00Z,30.2513,-88.0778,17.35,1111122 
DISL,ioos:station:DISL:DISL:1,2017-02-01T07:00:00Z,30.2513,-88.0778,17.25,1111122 
DISL,ioos:station:DISL:DISL:1,2017-02-01T07:30:00Z,30.2513,-88.0778,17.32,1111122 
DISL,ioos:station:DISL:DISL:1,2017-02-01T08:00:00Z,30.2513,-88.0778,17.25,1111122 
DISL,ioos:station:DISL:DISL:1,2017-02-01T08:30:00Z,30.2513,-88.0778,17.01,1111122 
DISL,ioos:station:DISL:DISL:1,2017-02-01T09:00:00Z,30.2513,-88.0778,16.77,1111122 
DISL,ioos:station:DISL:DISL:1,2017-02-01T09:30:00Z,30.2513,-88.0778,15.88,1111122 
DISL,ioos:station:DISL:DISL:1,2017-02-01T10:00:00Z,30.2513,-88.0778,15.96,1111122 
DISL,ioos:station:DISL:DISL:1,2017-02-01T10:30:00Z,30.2513,-88.0778,15.93,1111122 
DISL,ioos:station:DISL:DISL:1,2017-02-01T11:00:00Z,30.2513,-88.0778,15.9,1111122 
DISL,ioos:station:DISL:DISL:1,2017-02-01T11:30:00Z,30.2513,-88.0778,16.14,1111122 
DISL,ioos:station:DISL:DISL:1,2017-02-01T12:00:00Z,30.2513,-88.0778,16.03,1111122 
DISL,ioos:station:DISL:DISL:1,2017-02-01T12:30:00Z,30.2513,-88.0778,15.55,1111122 
DISL,ioos:station:DISL:DISL:1,2017-02-01T13:00:00Z,30.2513,-88.0778,15.28,1111122 
DISL,ioos:station:DISL:DISL:1,2017-02-01T13:30:00Z,30.2513,-88.0778,16.24,1111122 
DISL,ioos:station:DISL:DISL:1,2017-02-01T14:00:00Z,30.2513,-88.0778,15.91,1111122 
DISL,ioos:station:DISL:DISL:1,2017-02-01T14:30:00Z,30.2513,-88.0778,18.25,1111122 
DISL,ioos:station:DISL:DISL:1,2017-02-01T15:00:00Z,30.2513,-88.0778,16.8,1111122 
DISL,ioos:station:DISL:DISL:1,2017-02-01T15:30:00Z,30.2513,-88.0778,16.75,1111122 
DISL,ioos:station:DISL:DISL:1,2017-02-01T16:00:00Z,30.2513,-88.0778,17.19,1111122 
DISL,ioos:station:DISL:DISL:1,2017-02-01T16:30:00Z,30.2513,-88.0778,17.6,1111122 
DISL,ioos:station:DISL:DISL:1,2017-02-01T17:00:00Z,30.2513,-88.0778,17.88,1111122 
DISL,ioos:station:DISL:DISL:1,2017-02-01T17:30:00Z,30.2513,-88.0778,18.15,1111122 
DISL,ioos:station:DISL:DISL:1,2017-02-01T18:00:00Z,30.2513,-88.0778,18.8,1111122 
DISL,ioos:station:DISL:DISL:1,2017-02-01T18:30:00Z,30.2513,-88.0778,19.1,1111122 
DISL,ioos:station:DISL:DISL:1,2017-02-01T19:00:00Z,30.2513,-88.0778,19.57,1111122 
DISL,ioos:station:DISL:DISL:1,2017-02-01T19:30:00Z,30.2513,-88.0778,20.34,1111122 
DISL,ioos:station:DISL:DISL:1,2017-02-01T20:00:00Z,30.2513,-88.0778,19.41,1111122 
DISL,ioos:station:DISL:DISL:1,2017-02-01T20:30:00Z,30.2513,-88.0778,19.55,1111122 
DISL,ioos:station:DISL:DISL:1,2017-02-01T21:00:00Z,30.2513,-88.0778,19.8,1111122 
DISL,ioos:station:DISL:DISL:1,2017-02-01T21:30:00Z,30.2513,-88.0778,19.66,1111122 
DISL,ioos:station:DISL:DISL:1,2017-02-01T22:00:00Z,30.2513,-88.0778,19.5,1111122 
DISL,ioos:station:DISL:DISL:1,2017-02-01T22:30:00Z,30.2513,-88.0778,19.4,1111122 
DISL,ioos:station:DISL:DISL:1,2017-02-01T23:00:00Z,30.2513,-88.0778,18.82,1111122 
DISL,ioos:station:DISL:DISL:1,2017-02-01T23:30:00Z,30.2513,-88.0778,18.08,1111122 
DISL,ioos:station:DISL:DISL:1,2017-02-02T00:00:00Z,30.2513,-88.0778,17.62,1111122 
DISL,ioos:station:DISL:DISL:1,2017-02-02T00:30:00Z,30.2513,-88.0778,17.16,1111122 
DISL,ioos:station:DISL:DISL:1,2017-02-02T01:00:00Z,30.2513,-88.0778,17.23,1111122 
DISL,ioos:station:DISL:DISL:1,2017-02-02T01:30:00Z,30.2513,-88.0778,17.44,1111122 
DISL,ioos:station:DISL:DISL:1,2017-02-02T02:00:00Z,30.2513,-88.0778,17.37,1111122 
DISL,ioos:station:DISL:DISL:1,2017-02-02T02:30:00Z,30.2513,-88.0778,17.03,1111122 
DISL,ioos:station:DISL:DISL:1,2017-02-02T03:00:00Z,30.2513,-88.0778,16.87,1111122 
DISL,ioos:station:DISL:DISL:1,2017-02-02T03:30:00Z,30.2513,-88.0778,16.67,1111122 
DISL,ioos:station:DISL:DISL:1,2017-02-02T04:00:00Z,30.2513,-88.0778,16.43,1111122 
DISL,ioos:station:DISL:DISL:1,2017-02-02T04:30:00Z,30.2513,-88.0778,16.43,1111122 
DISL,ioos:station:DISL:DISL:1,2017-02-02T05:00:00Z,30.2513,-88.0778,16.43,1111122 
DISL,ioos:station:DISL:DISL:1,2017-02-02T05:30:00Z,30.2513,-88.0778,16.15,1111122 
DISL,ioos:station:DISL:DISL:1,2017-02-02T06:30:00Z,30.2513,-88.0778,16.6,1111122 
DISL,ioos:station:DISL:DISL:1,2017-02-02T07:00:00Z,30.2513,-88.0778,16.37,1111122 
DISL,ioos:station:DISL:DISL:1,2017-02-02T07:30:00Z,30.2513,-88.0778,16.33,1111122 
DISL,ioos:station:DISL:DISL:1,2017-02-02T08:00:00Z,30.2513,-88.0778,16.36,1111122 
DISL,ioos:station:DISL:DISL:1,2017-02-02T08:30:00Z,30.2513,-88.0778,16.22,1111122 
DISL,ioos:station:DISL:DISL:1,2017-02-02T09:00:00Z,30.2513,-88.0778,16.5,1111122 
DISL,ioos:station:DISL:DISL:1,2017-02-02T09:30:00Z,30.2513,-88.0778,16.81,1111122 
DISL,ioos:station:DISL:DISL:1,2017-02-02T10:00:00Z,30.2513,-88.0778,16.87,1111122 
DISL,ioos:station:DISL:DISL:1,2017-02-02T10:30:00Z,30.2513,-88.0778,16.29,1111122 
DISL,ioos:station:DISL:DISL:1,2017-02-02T11:00:00Z,30.2513,-88.0778,14.82,1111122 
DISL,ioos:station:DISL:DISL:1,2017-02-02T11:30:00Z,30.2513,-88.0778,14.76,1111122 
DISL,ioos:station:DISL:DISL:1,2017-02-02T12:00:00Z,30.2513,-88.0778,14.56,1111122 
DISL,ioos:station:DISL:DISL:1,2017-02-02T12:30:00Z,30.2513,-88.0778,14.52,1111122 
DISL,ioos:station:DISL:DISL:1,2017-02-02T13:00:00Z,30.2513,-88.0778,14.8,1111122 
DISL,ioos:station:DISL:DISL:1,2017-02-02T13:30:00Z,30.2513,-88.0778,15.76,1111122 
DISL,ioos:station:DISL:DISL:1,2017-02-02T14:00:00Z,30.2513,-88.0778,15.66,1111122 
DISL,ioos:station:DISL:DISL:1,2017-02-02T14:30:00Z,30.2513,-88.0778,16.15,1111122 
DISL,ioos:station:DISL:DISL:1,2017-02-02T15:00:00Z,30.2513,-88.0778,18.02,1111122 
DISL,ioos:station:DISL:DISL:1,2017-02-02T15:30:00Z,30.2513,-88.0778,17.84,1111122 
DISL,ioos:station:DISL:DISL:1,2017-02-02T16:00:00Z,30.2513,-88.0778,19.35,1111122 
DISL,ioos:station:DISL:DISL:1,2017-02-02T16:30:00Z,30.2513,-88.0778,19.37,1111122 
DISL,ioos:station:DISL:DISL:1,2017-02-02T17:00:00Z,30.2513,-88.0778,20.6,1111122 
DISL,ioos:station:DISL:DISL:1,2017-02-02T17:30:00Z,30.2513,-88.0778,19.69,1111122 
DISL,ioos:station:DISL:DISL:1,2017-02-02T18:00:00Z,30.2513,-88.0778,19.67,1111122 
DISL,ioos:station:DISL:DISL:1,2017-02-02T18:30:00Z,30.2513,-88.0778,19.57,1111122 
DISL,ioos:station:DISL:DISL:1,2017-02-02T19:00:00Z,30.2513,-88.0778,19.8,1111122 
DISL,ioos:station:DISL:DISL:1,2017-02-02T19:30:00Z,30.2513,-88.0778,21.04,1111122 
DISL,ioos:station:DISL:DISL:1,2017-02-02T20:00:00Z,30.2513,-88.0778,20.76,1111122 
DISL,ioos:station:DISL:DISL:1,2017-02-02T20:30:00Z,30.2513,-88.0778,20.83,1111122 
DISL,ioos:station:DISL:DISL:1,2017-02-02T21:00:00Z,30.2513,-88.0778,20.76,1111122 
DISL,ioos:station:DISL:DISL:1,2017-02-02T21:30:00Z,30.2513,-88.0778,20.42,1111122 
DISL,ioos:station:DISL:DISL:1,2017-02-02T22:00:00Z,30.2513,-88.0778,20.54,1111122 
DISL,ioos:station:DISL:DISL:1,2017-02-02T22:30:00Z,30.2513,-88.0778,20.17,1111122 
DISL,ioos:station:DISL:DISL:1,2017-02-02T23:00:00Z,30.2513,-88.0778,19.5,1111122 
DISL,ioos:station:DISL:DISL:1,2017-02-02T23:30:00Z,30.2513,-88.0778,18.73,1111122 
DISL,ioos:station:DISL:DISL:1,2017-02-03T00:00:00Z,30.2513,-88.0778,18.2,1111122 
DISL,ioos:station:DISL:DISL:1,2017-02-03T00:30:00Z,30.2513,-88.0778,18.01,1111122 
DISL,ioos:station:DISL:DISL:1,2017-02-03T01:00:00Z,30.2513,-88.0778,17.78,1111122 
DISL,ioos:station:DISL:DISL:1,2017-02-03T01:30:00Z,30.2513,-88.0778,17.4,1111122 
DISL,ioos:station:DISL:DISL:1,2017-02-03T02:00:00Z,30.2513,-88.0778,17.47,1111122 
DISL,ioos:station:DISL:DISL:1,2017-02-03T02:30:00Z,30.2513,-88.0778,17.44,1111122 
DISL,ioos:station:DISL:DISL:1,2017-02-03T03:00:00Z,30.2513,-88.0778,16.96,1111122 
DISL,ioos:station:DISL:DISL:1,2017-02-03T03:30:00Z,30.2513,-88.0778,16.94,1111122 
DISL,ioos:station:DISL:DISL:1,2017-02-03T04:00:00Z,30.2513,-88.0778,16.98,1111122 
DISL,ioos:station:DISL:DISL:1,2017-02-03T04:30:00Z,30.2513,-88.0778,17.04,1111122 
DISL,ioos:station:DISL:DISL:1,2017-02-03T05:00:00Z,30.2513,-88.0778,17.01,1111122 
DISL,ioos:station:DISL:DISL:1,2017-02-03T05:30:00Z,30.2513,-88.0778,17.29,1111122 
DISL,ioos:station:DISL:DISL:1,2017-02-03T06:30:00Z,30.2513,-88.0778,17.32,1111122 
DISL,ioos:station:DISL:DISL:1,2017-02-03T07:00:00Z,30.2513,-88.0778,17.17,1111122 
DISL,ioos:station:DISL:DISL:1,2017-02-03T07:30:00Z,30.2513,-88.0778,17.58,1111122 
DISL,ioos:station:DISL:DISL:1,2017-02-03T08:00:00Z,30.2513,-88.0778,17.68,1111122 
DISL,ioos:station:DISL:DISL:1,2017-02-03T08:30:00Z,30.2513,-88.0778,16.07,1111122 
DISL,ioos:station:DISL:DISL:1,2017-02-03T09:00:00Z,30.2513,-88.0778,15.39,1111122 
DISL,ioos:station:DISL:DISL:1,2017-02-03T09:30:00Z,30.2513,-88.0778,15.88,1111122 
DISL,ioos:station:DISL:DISL:1,2017-02-03T10:00:00Z,30.2513,-88.0778,15.88,1111122 
DISL,ioos:station:DISL:DISL:1,2017-02-03T10:30:00Z,30.2513,-88.0778,15.88,1111122 
DISL,ioos:station:DISL:DISL:1,2017-02-03T11:00:00Z,30.2513,-88.0778,15.94,1111122 
DISL,ioos:station:DISL:DISL:1,2017-02-03T11:30:00Z,30.2513,-88.0778,15.97,1111122 
DISL,ioos:station:DISL:DISL:1,2017-02-03T12:00:00Z,30.2513,-88.0778,15.72,1111122 
DISL,ioos:station:DISL:DISL:1,2017-02-03T12:30:00Z,30.2513,-88.0778,15.73,1111122 
DISL,ioos:station:DISL:DISL:1,2017-02-03T13:00:00Z,30.2513,-88.0778,15.74,1111122 
DISL,ioos:station:DISL:DISL:1,2017-02-03T13:30:00Z,30.2513,-88.0778,15.8,1111122 
DISL,ioos:station:DISL:DISL:1,2017-02-03T14:00:00Z,30.2513,-88.0778,14.87,1111122 
DISL,ioos:station:DISL:DISL:1,2017-02-03T14:30:00Z,30.2513,-88.0778,14.85,1111122 
DISL,ioos:station:DISL:DISL:1,2017-02-03T15:00:00Z,30.2513,-88.0778,14.9,1111122 
DISL,ioos:station:DISL:DISL:1,2017-02-03T15:30:00Z,30.2513,-88.0778,14.9,1111122 
DISL,ioos:station:DISL:DISL:1,2017-02-03T16:00:00Z,30.2513,-88.0778,14.69,1111122 
DISL,ioos:station:DISL:DISL:1,2017-02-03T16:30:00Z,30.2513,-88.0778,14.73,1111122 
DISL,ioos:station:DISL:DISL:1,2017-02-03T17:00:00Z,30.2513,-88.0778,13.95,1111122 
DISL,ioos:station:DISL:DISL:1,2017-02-03T17:30:00Z,30.2513,-88.0778,13.44,1111122 
DISL,ioos:station:DISL:DISL:1,2017-02-03T18:00:00Z,30.2513,-88.0778,13.06,1111122 
DISL,ioos:station:DISL:DISL:1,2017-02-03T18:30:00Z,30.2513,-88.0778,12.59,1111122 
DISL,ioos:station:DISL:DISL:1,2017-02-03T19:00:00Z,30.2513,-88.0778,12.79,1111122 
DISL,ioos:station:DISL:DISL:1,2017-02-03T19:30:00Z,30.2513,-88.0778,12.89,1111122 
DISL,ioos:station:DISL:DISL:1,2017-02-03T20:00:00Z,30.2513,-88.0778,13.33,1111122 
DISL,ioos:station:DISL:DISL:1,2017-02-03T20:30:00Z,30.2513,-88.0778,13.6,1111122 
DISL,ioos:station:DISL:DISL:1,2017-02-03T21:00:00Z,30.2513,-88.0778,13.67,1111122 
DISL,ioos:station:DISL:DISL:1,2017-02-03T21:30:00Z,30.2513,-88.0778,13.92,1111122 
DISL,ioos:station:DISL:DISL:1,2017-02-03T22:00:00Z,30.2513,-88.0778,13.51,1111122 
DISL,ioos:station:DISL:DISL:1,2017-02-03T22:30:00Z,30.2513,-88.0778,13.13,1111122 
DISL,ioos:station:DISL:DISL:1,2017-02-03T23:00:00Z,30.2513,-88.0778,13.03,1111122 
DISL,ioos:station:DISL:DISL:1,2017-02-03T23:30:00Z,30.2513,-88.0778,12.87,1111122 
DISL,ioos:station:DISL:DISL:1,2017-02-04T00:00:00Z,30.2513,-88.0778,12.43,1111122 
DISL,ioos:station:DISL:DISL:1,2017-02-04T00:30:00Z,30.2513,-88.0778,12.05,1111122 
DISL,ioos:station:DISL:DISL:1,2017-02-04T01:00:00Z,30.2513,-88.0778,11.93,1111122 
DISL,ioos:station:DISL:DISL:1,2017-02-04T01:30:00Z,30.2513,-88.0778,11.97,1111122 
DISL,ioos:station:DISL:DISL:1,2017-02-04T02:00:00Z,30.2513,-88.0778,11.93,1111122 
DISL,ioos:station:DISL:DISL:1,2017-02-04T02:30:00Z,30.2513,-88.0778,12.24,1111122 
DISL,ioos:station:DISL:DISL:1,2017-02-04T03:00:00Z,30.2513,-88.0778,12.14,1111122 
DISL,ioos:station:DISL:DISL:1,2017-02-04T03:30:00Z,30.2513,-88.0778,12.41,1111122 
DISL,ioos:station:DISL:DISL:1,2017-02-04T04:00:00Z,30.2513,-88.0778,12.0,1111122 
DISL,ioos:station:DISL:DISL:1,2017-02-04T04:30:00Z,30.2513,-88.0778,11.69,1111122 
DISL,ioos:station:DISL:DISL:1,2017-02-04T05:00:00Z,30.2513,-88.0778,11.38,1111122 
DISL,ioos:station:DISL:DISL:1,2017-02-04T05:30:00Z,30.2513,-88.0778,10.83,1111122 
DISL,ioos:station:DISL:DISL:1,2017-02-04T06:30:00Z,30.2513,-88.0778,10.26,1111122 
DISL,ioos:station:DISL:DISL:1,2017-02-04T07:00:00Z,30.2513,-88.0778,10.33,1111122 
DISL,ioos:station:DISL:DISL:1,2017-02-04T07:30:00Z,30.2513,-88.0778,9.58,1111122 
DISL,ioos:station:DISL:DISL:1,2017-02-04T08:00:00Z,30.2513,-88.0778,9.2,1111122 
DISL,ioos:station:DISL:DISL:1,2017-02-04T08:30:00Z,30.2513,-88.0778,8.62,1111122 
DISL,ioos:station:DISL:DISL:1,2017-02-04T09:00:00Z,30.2513,-88.0778,8.12,1111122 
DISL,ioos:station:DISL:DISL:1,2017-02-04T09:30:00Z,30.2513,-88.0778,7.5,1111122 
DISL,ioos:station:DISL:DISL:1,2017-02-04T10:00:00Z,30.2513,-88.0778,7.61,1111122 
DISL,ioos:station:DISL:DISL:1,2017-02-04T10:30:00Z,30.2513,-88.0778,7.062,1111122 
DISL,ioos:station:DISL:DISL:1,2017-02-04T11:00:00Z,30.2513,-88.0778,6.654,1111122 
DISL,ioos:station:DISL:DISL:1,2017-02-04T11:30:00Z,30.2513,-88.0778,6.691,1111122 
DISL,ioos:station:DISL:DISL:1,2017-02-04T12:00:00Z,30.2513,-88.0778,6.106,1111122 
DISL,ioos:station:DISL:DISL:1,2017-02-04T12:30:00Z,30.2513,-88.0778,6.003,1111122 
DISL,ioos:station:DISL:DISL:1,2017-02-04T13:00:00Z,30.2513,-88.0778,6.038,1111122 
DISL,ioos:station:DISL:DISL:1,2017-02-04T13:30:00Z,30.2513,-88.0778,6.209,1111122 
DISL,ioos:station:DISL:DISL:1,2017-02-04T14:00:00Z,30.2513,-88.0778,6.277,1111122 
DISL,ioos:station:DISL:DISL:1,2017-02-04T14:30:00Z,30.2513,-88.0778,5.927,1111122 
DISL,ioos:station:DISL:DISL:1,2017-02-04T15:00:00Z,30.2513,-88.0778,6.332,1111122 
DISL,ioos:station:DISL:DISL:1,2017-02-04T15:30:00Z,30.2513,-88.0778,6.881,1111122 
DISL,ioos:station:DISL:DISL:1,2017-02-04T16:00:00Z,30.2513,-88.0778,7.141,1111122 
DISL,ioos:station:DISL:DISL:1,2017-02-04T16:30:00Z,30.2513,-88.0778,7.758,1111122 
DISL,ioos:station:DISL:DISL:1,2017-02-04T17:00:00Z,30.2513,-88.0778,8.02,1111122 
DISL,ioos:station:DISL:DISL:1,2017-02-04T17:30:00Z,30.2513,-88.0778,8.33,1111122 
DISL,ioos:station:DISL:DISL:1,2017-02-04T18:00:00Z,30.2513,-88.0778,8.83,1111122 
DISL,ioos:station:DISL:DISL:1,2017-02-04T18:30:00Z,30.2513,-88.0778,9.3,1111122 
DISL,ioos:station:DISL:DISL:1,2017-02-04T19:00:00Z,30.2513,-88.0778,9.6,1111122 
DISL,ioos:station:DISL:DISL:1,2017-02-04T19:30:00Z,30.2513,-88.0778,10.04,1111122 
DISL,ioos:station:DISL:DISL:1,2017-02-04T20:00:00Z,30.2513,-88.0778,10.42,1111122 
DISL,ioos:station:DISL:DISL:1,2017-02-04T20:30:00Z,30.2513,-88.0778,10.92,1111122 
DISL,ioos:station:DISL:DISL:1,2017-02-04T21:00:00Z,30.2513,-88.0778,11.4,1111122 
DISL,ioos:station:DISL:DISL:1,2017-02-04T21:30:00Z,30.2513,-88.0778,11.71,1111122 
DISL,ioos:station:DISL:DISL:1,2017-02-04T22:00:00Z,30.2513,-88.0778,12.29,1111122 
DISL,ioos:station:DISL:DISL:1,2017-02-04T22:30:00Z,30.2513,-88.0778,13.18,1111122 
DISL,ioos:station:DISL:DISL:1,2017-02-04T23:00:00Z,30.2513,-88.0778,12.98,1111122 
DISL,ioos:station:DISL:DISL:1,2017-02-04T23:30:00Z,30.2513,-88.0778,12.52,1111122 
DISL,ioos:station:DISL:DISL:1,2017-02-05T00:00:00Z,30.2513,-88.0778,12.61,1111122 
DISL,ioos:station:DISL:DISL:1,2017-02-05T00:30:00Z,30.2513,-88.0778,12.55,1111122 
DISL,ioos:station:DISL:DISL:1,2017-02-05T01:00:00Z,30.2513,-88.0778,12.65,1111122 
DISL,ioos:station:DISL:DISL:1,2017-02-05T01:30:00Z,30.2513,-88.0778,12.93,1111122 
DISL,ioos:station:DISL:DISL:1,2017-02-05T02:00:00Z,30.2513,-88.0778,13.07,1111122 
DISL,ioos:station:DISL:DISL:1,2017-02-05T02:30:00Z,30.2513,-88.0778,13.27,1111122 
DISL,ioos:station:DISL:DISL:1,2017-02-05T03:00:00Z,30.2513,-88.0778,13.2,1111122 
DISL,ioos:station:DISL:DISL:1,2017-02-05T03:30:00Z,30.2513,-88.0778,12.38,1111122 
DISL,ioos:station:DISL:DISL:1,2017-02-05T04:00:00Z,30.2513,-88.0778,11.52,1111122 
DISL,ioos:station:DISL:DISL:1,2017-02-05T04:30:00Z,30.2513,-88.0778,12.33,1111122 
DISL,ioos:station:DISL:DISL:1,2017-02-05T05:00:00Z,30.2513,-88.0778,12.29,1111122 
DISL,ioos:station:DISL:DISL:1,2017-02-05T05:30:00Z,30.2513,-88.0778,13.12,1111122 
DISL,ioos:station:DISL:DISL:1,2017-02-05T06:30:00Z,30.2513,-88.0778,13.29,1111122 
DISL,ioos:station:DISL:DISL:1,2017-02-05T07:00:00Z,30.2513,-88.0778,13.24,1111122 
DISL,ioos:station:DISL:DISL:1,2017-02-05T07:30:00Z,30.2513,-88.0778,12.72,1111122 
DISL,ioos:station:DISL:DISL:1,2017-02-05T08:00:00Z,30.2513,-88.0778,12.76,1111122 
DISL,ioos:station:DISL:DISL:1,2017-02-05T08:30:00Z,30.2513,-88.0778,12.62,1111122 
DISL,ioos:station:DISL:DISL:1,2017-02-05T09:00:00Z,30.2513,-88.0778,13.17,1111122 
DISL,ioos:station:DISL:DISL:1,2017-02-05T09:30:00Z,30.2513,-88.0778,11.62,1111122 
DISL,ioos:station:DISL:DISL:1,2017-02-05T10:00:00Z,30.2513,-88.0778,12.56,1111122 
DISL,ioos:station:DISL:DISL:1,2017-02-05T10:30:00Z,30.2513,-88.0778,13.77,1111122 
DISL,ioos:station:DISL:DISL:1,2017-02-05T11:00:00Z,30.2513,-88.0778,14.34,1111122 
DISL,ioos:station:DISL:DISL:1,2017-02-05T11:30:00Z,30.2513,-88.0778,13.86,1111122 
DISL,ioos:station:DISL:DISL:1,2017-02-05T12:00:00Z,30.2513,-88.0778,13.41,1111122 
DISL,ioos:station:DISL:DISL:1,2017-02-05T12:30:00Z,30.2513,-88.0778,13.31,1111122 
DISL,ioos:station:DISL:DISL:1,2017-02-05T13:00:00Z,30.2513,-88.0778,14.41,1111122 
DISL,ioos:station:DISL:DISL:1,2017-02-05T13:30:00Z,30.2513,-88.0778,13.85,1111122 
DISL,ioos:station:DISL:DISL:1,2017-02-05T14:00:00Z,30.2513,-88.0778,13.77,1111122 
DISL,ioos:station:DISL:DISL:1,2017-02-05T14:30:00Z,30.2513,-88.0778,14.38,1111122 
DISL,ioos:station:DISL:DISL:1,2017-02-05T15:00:00Z,30.2513,-88.0778,14.56,1111122 
DISL,ioos:station:DISL:DISL:1,2017-02-05T15:30:00Z,30.2513,-88.0778,14.59,1111122 
DISL,ioos:station:DISL:DISL:1,2017-02-05T16:00:00Z,30.2513,-88.0778,14.85,1111122 
DISL,ioos:station:DISL:DISL:1,2017-02-05T16:30:00Z,30.2513,-88.0778,15.12,1111122 
DISL,ioos:station:DISL:DISL:1,2017-02-05T17:00:00Z,30.2513,-88.0778,14.95,1111122 
DISL,ioos:station:DISL:DISL:1,2017-02-05T17:30:00Z,30.2513,-88.0778,15.7,1111122 
DISL,ioos:station:DISL:DISL:1,2017-02-05T18:00:00Z,30.2513,-88.0778,18.7,1111122 
DISL,ioos:station:DISL:DISL:1,2017-02-05T18:30:00Z,30.2513,-88.0778,19.11,1111122 
DISL,ioos:station:DISL:DISL:1,2017-02-05T19:00:00Z,30.2513,-88.0778,18.54,1111122 
DISL,ioos:station:DISL:DISL:1,2017-02-05T19:30:00Z,30.2513,-88.0778,19.29,1111122 
DISL,ioos:station:DISL:DISL:1,2017-02-05T20:00:00Z,30.2513,-88.0778,18.87,1111122 
DISL,ioos:station:DISL:DISL:1,2017-02-05T20:30:00Z,30.2513,-88.0778,19.28,1111122 
DISL,ioos:station:DISL:DISL:1,2017-02-05T21:00:00Z,30.2513,-88.0778,18.59,1111122 
DISL,ioos:station:DISL:DISL:1,2017-02-05T21:30:00Z,30.2513,-88.0778,18.8,1111122 
DISL,ioos:station:DISL:DISL:1,2017-02-05T22:00:00Z,30.2513,-88.0778,18.74,1111122 
DISL,ioos:station:DISL:DISL:1,2017-02-05T22:30:00Z,30.2513,-88.0778,18.68,1111122 
DISL,ioos:station:DISL:DISL:1,2017-02-05T23:00:00Z,30.2513,-88.0778,17.9,1111122 
DISL,ioos:station:DISL:DISL:1,2017-02-05T23:30:00Z,30.2513,-88.0778,17.33,1111122 
DISL,ioos:station:DISL:DISL:1,2017-02-06T00:00:00Z,30.2513,-88.0778,16.67,1111122 
DISL,ioos:station:DISL:DISL:1,2017-02-06T00:30:00Z,30.2513,-88.0778,16.48,1111122 
DISL,ioos:station:DISL:DISL:1,2017-02-06T01:00:00Z,30.2513,-88.0778,15.77,1111122 
DISL,ioos:station:DISL:DISL:1,2017-02-06T01:30:00Z,30.2513,-88.0778,16.22,1111122 
DISL,ioos:station:DISL:DISL:1,2017-02-06T02:00:00Z,30.2513,-88.0778,16.19,1111122 
DISL,ioos:station:DISL:DISL:1,2017-02-06T02:30:00Z,30.2513,-88.0778,16.5,1111122 
DISL,ioos:station:DISL:DISL:1,2017-02-06T03:00:00Z,30.2513,-88.0778,16.46,1111122 
DISL,ioos:station:DISL:DISL:1,2017-02-06T03:30:00Z,30.2513,-88.0778,16.63,1111122 
DISL,ioos:station:DISL:DISL:1,2017-02-06T04:00:00Z,30.2513,-88.0778,16.7,1111122 
DISL,ioos:station:DISL:DISL:1,2017-02-06T04:30:00Z,30.2513,-88.0778,16.53,1111122 
DISL,ioos:station:DISL:DISL:1,2017-02-06T05:00:00Z,30.2513,-88.0778,16.46,1111122 
DISL,ioos:station:DISL:DISL:1,2017-02-06T05:30:00Z,30.2513,-88.0778,16.29,1111122 
DISL,ioos:station:DISL:DISL:1,2017-02-06T06:30:00Z,30.2513,-88.0778,16.29,1111122 
DISL,ioos:station:DISL:DISL:1,2017-02-06T07:00:00Z,30.2513,-88.0778,16.36,1111122 
DISL,ioos:station:DISL:DISL:1,2017-02-06T07:30:00Z,30.2513,-88.0778,16.22,1111122 
DISL,ioos:station:DISL:DISL:1,2017-02-06T08:00:00Z,30.2513,-88.0778,16.15,1111122 
DISL,ioos:station:DISL:DISL:1,2017-02-06T08:30:00Z,30.2513,-88.0778,16.05,1111122 
DISL,ioos:station:DISL:DISL:1,2017-02-06T09:00:00Z,30.2513,-88.0778,15.81,1111122 
DISL,ioos:station:DISL:DISL:1,2017-02-06T09:30:00Z,30.2513,-88.0778,15.61,1111122 
DISL,ioos:station:DISL:DISL:1,2017-02-06T10:00:00Z,30.2513,-88.0778,15.82,1111122 
DISL,ioos:station:DISL:DISL:1,2017-02-06T10:30:00Z,30.2513,-88.0778,15.89,1111122 
DISL,ioos:station:DISL:DISL:1,2017-02-06T11:00:00Z,30.2513,-88.0778,15.71,1111122 
DISL,ioos:station:DISL:DISL:1,2017-02-06T11:30:00Z,30.2513,-88.0778,15.57,1111122 
DISL,ioos:station:DISL:DISL:1,2017-02-06T12:00:00Z,30.2513,-88.0778,15.27,1111122 
DISL,ioos:station:DISL:DISL:1,2017-02-06T12:30:00Z,30.2513,-88.0778,16.3,1111122 
DISL,ioos:station:DISL:DISL:1,2017-02-06T13:00:00Z,30.2513,-88.0778,17.05,1111122 
DISL,ioos:station:DISL:DISL:1,2017-02-06T13:30:00Z,30.2513,-88.0778,16.87,1111122 
DISL,ioos:station:DISL:DISL:1,2017-02-06T14:00:00Z,30.2513,-88.0778,16.89,1111122 
DISL,ioos:station:DISL:DISL:1,2017-02-06T14:30:00Z,30.2513,-88.0778,18.01,1111122 
DISL,ioos:station:DISL:DISL:1,2017-02-06T15:00:00Z,30.2513,-88.0778,18.07,1111122 
DISL,ioos:station:DISL:DISL:1,2017-02-06T15:30:00Z,30.2513,-88.0778,17.95,1111122 
DISL,ioos:station:DISL:DISL:1,2017-02-06T16:00:00Z,30.2513,-88.0778,18.67,1111122 
DISL,ioos:station:DISL:DISL:1,2017-02-06T16:30:00Z,30.2513,-88.0778,18.94,1111122 
DISL,ioos:station:DISL:DISL:1,2017-02-06T17:00:00Z,30.2513,-88.0778,18.97,1111122 
DISL,ioos:station:DISL:DISL:1,2017-02-06T17:30:00Z,30.2513,-88.0778,18.61,1111122 
DISL,ioos:station:DISL:DISL:1,2017-02-06T18:00:00Z,30.2513,-88.0778,19.64,1111122 
DISL,ioos:station:DISL:DISL:1,2017-02-06T18:30:00Z,30.2513,-88.0778,19.61,1111122 
DISL,ioos:station:DISL:DISL:1,2017-02-06T19:00:00Z,30.2513,-88.0778,19.78,1111122 
DISL,ioos:station:DISL:DISL:1,2017-02-06T19:30:00Z,30.2513,-88.0778,19.7,1111122 
DISL,ioos:station:DISL:DISL:1,2017-02-06T20:00:00Z,30.2513,-88.0778,19.77,1111122 
DISL,ioos:station:DISL:DISL:1,2017-02-06T20:30:00Z,30.2513,-88.0778,19.81,1111122 
DISL,ioos:station:DISL:DISL:1,2017-02-06T21:00:00Z,30.2513,-88.0778,19.3,1111122 
DISL,ioos:station:DISL:DISL:1,2017-02-06T21:30:00Z,30.2513,-88.0778,19.5,1111122 
DISL,ioos:station:DISL:DISL:1,2017-02-06T22:00:00Z,30.2513,-88.0778,19.09,1111122 
DISL,ioos:station:DISL:DISL:1,2017-02-06T22:30:00Z,30.2513,-88.0778,18.93,1111122 
DISL,ioos:station:DISL:DISL:1,2017-02-06T23:00:00Z,30.2513,-88.0778,18.77,1111122 
DISL,ioos:station:DISL:DISL:1,2017-02-06T23:30:00Z,30.2513,-88.0778,18.61,1111122 
DISL,ioos:station:DISL:DISL:1,2017-02-07T00:00:00Z,30.2513,-88.0778,18.55,1111122 
DISL,ioos:station:DISL:DISL:1,2017-02-07T00:30:00Z,30.2513,-88.0778,18.48,1111122 
DISL,ioos:station:DISL:DISL:1,2017-02-07T01:00:00Z,30.2513,-88.0778,18.45,1111122 
DISL,ioos:station:DISL:DISL:1,2017-02-07T01:30:00Z,30.2513,-88.0778,18.52,1111122 
DISL,ioos:station:DISL:DISL:1,2017-02-07T02:00:00Z,30.2513,-88.0778,18.31,1111122 
DISL,ioos:station:DISL:DISL:1,2017-02-07T02:30:00Z,30.2513,-88.0778,18.24,1111122 
DISL,ioos:station:DISL:DISL:1,2017-02-07T03:00:00Z,30.2513,-88.0778,18.36,1111122 